This demonstration page uses our WeatherBlox Daily Observations layout. Learn more.

Left ArrowRight Arrow

Hourly Observations for November 2, 2021

Temp ( °F °C ) Dew Point ( °F °C ) Humidity (%) Winds ( mph kmh ) Pressure ( in mb ) Visibility ( mi km ) Precip ( " mm )
12:53 am 00:53 Clear 19 -7.2 16 -8.9 88 88 Calm 30.31 1026 10 16 0.00 0.00
1:53 am 01:53 Clear 17 -8.3 14 -10 88 88 E 5 7 30.29 1026 10 16 0.00 0.00
2:53 am 02:53 Clear 14 -10 11 -11.7 88 88 Calm 30.29 1026 10 16 0.00 0.00
3:53 am 03:53 Clear 14 -10 11 -11.7 88 88 Calm 30.29 1026 10 16 0.00 0.00
4:53 am 04:53 Clear 12 -11.1 9 -12.8 87 87 Calm 30.27 1025 10 16 0.00 0.00
5:53 am 05:53 Clear 11 -11.7 8 -13.3 88 88 Calm 30.27 1025 10 16 0.00 0.00
6:53 am 06:53 Clear 11 -11.7 9 -12.8 92 92 W 3 6 30.27 1025 10 16 0.00 0.00
7:53 am 07:53 Clear 13 -10.6 10 -12.2 88 88 SW 6 9 30.27 1025 10 16 0.00 0.00
8:53 am 08:53 Sunny 15 -9.4 12 -11.1 88 88 WSW 6 9 30.29 1026 10 16 0.00 0.00
9:53 am 09:53 Sunny 19 -7.2 17 -8.3 92 92 SW 6 9 30.29 1026 10 16 0.00 0.00
10:53 am 10:53 Sunny 23 -5 20 -6.7 88 88 WSW 5 7 30.29 1026 10 16 0.00 0.00
11:53 am 11:53 Sunny 28 -2.2 22 -5.6 78 78 WSW 6 9 30.28 1025 10 16 0.00 0.00
12:53 pm 12:53 Sunny 32 0 24 -4.4 73 73 W 5 7 30.26 1025 10 16 0.00 0.00
1:53 pm 13:53 Sunny 34 1.1 25 -3.9 70 70 VRB 3 6 30.23 1024 10 16 0.00 0.00
2:53 pm 14:53 Sunny 37 2.8 26 -3.3 65 65 VRB 3 6 30.22 1024 10 16 0.00 0.00
3:53 pm 15:53 Sunny 41 5 27 -2.8 57 57 ESE 5 7 30.21 1023 10 16 0.00 0.00
4:53 pm 16:53 Sunny 41 5 28 -2.2 60 60 E 5 7 30.22 1023 10 16 0.00 0.00
5:53 pm 17:53 Sunny 37 2.8 28 -2.2 70 70 E 5 7 30.24 1024 10 16 0.00 0.00
6:53 pm 18:53 Clear 33 0.6 26 -3.3 75 75 E 7 11 30.26 1025 10 16 0.00 0.00
7:53 pm 19:53 Clear 31 -0.6 25 -3.9 79 79 Calm 30.25 1025 10 16 0.00 0.00
8:53 pm 20:53 Clear 30 -1.1 24 -4.4 79 79 Calm 30.25 1024 10 16 0.00 0.00
9:53 pm 21:53 Clear 34 1.1 29 -1.7 82 82 SW 12 19 30.24 1024 10 16 0.00 0.00
10:53 pm 22:53 Clear 34 1.1 30 -1.1 85 85 WSW 13 20 30.25 1025 10 16 0.00 0.00
11:53 pm 23:53 Clear 33 0.6 28 -2.2 82 82 W 8 13 30.26 1025 10 16 0.00 0.00

Powered by AerisWeather